Regional Weather Roundup
Issued by NWS Newport/Morehead, NC

Current Version | Previous Version | Graphics & Text | Print | Product List | Glossary Off
Versions: 1 2 3 4 5 6 7 8 9 10 11 12 13 14 15 16 17 18 19 20 21 22 23 24 25 26 27 28 29 30 31 32 33 34 35 36 37 38 39 40 41 42 43 44 45 46 47 48 49 50
000 ASUS42 KMHX 130425 RWRMHX WEATHER ROUNDUP FOR EASTERN NORTH CAROLINA NATIONAL WEATHER SERVICE NEWPORT/MOREHEAD CITY NC 1100 PM EST TUE DEC 12 2017 NOTE: "FAIR" INDICATES FEW OR NO CLOUDS BELOW 12,000 FEET WITH NO SIGNIFICANT WEATHER AND/OR OBSTRUCTIONS TO VISIBILITY NCZ015>017-031-032-045>047-102-103-130500- NORTH COAST CITY SKY/WX TMP DP RH WIND PRES REMARKS EDENTON MOCLDY 38 16 40 NW22G32 29.73R ELIZABETH CITY CLOUDY 37 30 75 NW21 29.69R KITTY HAWK LGT SNOW 35 31 85 NW12G25 29.67R MANTEO LGT RAIN 38 30 71 N13G22 29.67R $$ NCZ045>047-081-094-103-104-130500- CENTRAL COAST CITY SKY/WX TMP DP RH WIND PRES REMARKS FRISCO CLOUDY 41 33 73 NW21G38 29.68R $$ NCZ095-097-098-100-101-130500- SOUTHERN COAST CITY SKY/WX TMP DP RH WIND PRES REMARKS BEAUFORT MOCLDY 40 32 73 NW18G28 29.74R CEDAR ISLAND NOT AVBL JACKSONVILLE CLOUDY 41 26 55 NW16G26 29.77R PINEY ISLAND N/A N/A N/A N/A NW24G35 29.73R WILMINGTON PTCLDY 42 17 36 NW25G36 29.80R $$ NCZ011>013-027>030-043-044-078>080-089-090>093-098-130500- COASTAL PLAIN CITY SKY/WX TMP DP RH WIND PRES REMARKS AHOSKIE CLEAR 33 10 38 NW9G20 29.76R CLINTON CLEAR 37 16 41 NW8 29.82R ELIZABETHTOWN NOT AVBL GOLDSBORO CLEAR 36 14 40 NW9G17 29.78R GREENVILLE CLEAR 36 16 44 NW7G22 29.80R HAVELOCK CLOUDY 40 31 70 NW17G23 29.76R KENANSVILLE CLEAR 37 14 38 NW12G21 29.80R KINSTON CLEAR 36 15 43 NW10G22 29.80R NEW BERN MOCLDY 38 26 62 NW14G23 29.77R RICHLANDS PTCLDY 39 19 44 VRB3 29.79R ROCKY MOUNT CLEAR 33 14 45 NW15G28 29.79R WASHINGTON MOCLDY 35 20 54 NW14G22 29.76R WHITEVILLE PTCLDY 40 21 47 W5 29.83R $$ AMZ130-135-150-152-154-156-158-170-250-252-270-ANZ085-086-088-633-658-670-130500- MARINE OBSERVATIONS STATION/POSITION TIME TEMP WIND PRES WAVE SWELL AIR SEA DIR/SP/G HT/PER HT/PER (UTC) (F) (DEG/KT/KT) (MB) (FT/S) (FT/S) CHESAPEAKE LIGHT NOT AVBL 64 E VA BEACH 0350 42 60 310/ 31/ 39 1001.6 7/ 6 DUCK 0400 38 56 320/ 24/ 30 1003.8 2 E DUCK 0400 56 N/A 6/ 6 OREGON INLET 0400 40 47 310/ 19/ 25 1004.2 13E OREGON INLT 0348 59 N/A 7/ 5 2/ 9 HATTERAS CG 0400 41 56 310/ 32/ 38 1005.0 DIAMOND BUOY 0410 46 72 310/ 33/ 41 1004.9 CAPE LOOKOUT 0400 330/ 24/ 27 1007.0 BEAUFORT LAB 0400 40 52 330/ 12/ 19 1007.1 30 SE NEW RVR IN 0408 48 63 350/ 21/ 29 1007.5 30 SE NEW RVR IN 0400 63 N/A 8/ 5 2/11 27 SE WRIGHTSVLE 0408 49 65 310/ 31/ 45 1007.8 5 SE WRIGHTSVLE 0408 47 58 320/ 21/ 33 1007.7 225 S CAPE HAT 0350 68 75 290/ 29/ 35 1003.8 17/10 2/16 41 SE CHARLESTON 0410 54 74 300/ 29/ 39 1010.1 $$

USA.gov is the U.S. government's official web portal to all federal, state and local government web resources and services.